Wind_Speed
12 12 12 11 12 15 19 19 17 16 18 12 19 23 28 30 32 27 32 45 51 46 44 36 32 29 31 28 22 17 15 14
12 12 13 12 10 13 18 5 13 12 17 15 17 23 30 28 24 27 35 38 35 40 44 41 30 28 28 31 25 18 15 14
12 11 14 11 8 10 10 9 12 13 13 17 19 27 31 29 24 30 28 33 37 40 35 36 34 32 36 29 24 19 16 17
12 10 12 9 6 5 2 8 10 16 13 19 22 28 32 33 31 33 39 41 41 41 42 43 41 38 33 27 24 22 18 18
12 10 10 10 7 3 1 5 9 13 14 20 18 25 35 32 33 32 34 44 45 47 35 36 37 39 33 27 21 19 19 18
12 12 11 11 8 6 4 5 7 8 12 16 20 24 26 33 34 37 34 33 37 48 44 41 40 36 34 29 27 26 21 20
16 17 13 10 10 8 7 6 6 6 7 12 21 25 25 32 35 41 34 34 35 37 40 45 45 42 39 32 29 24 23 26
19 17 12 11 10 10 10 8 7 7 7 7 7 19 28 27 32 33 39 36 33 29 28 31 40 42 39 35 30 27 24 27
22 21 17 14 13 14 13 11 10 8 7 6 6 7 13 23 28 29 27 30 27 26 28 26 32 34 37 36 33 31 28 32
21 21 21 18 17 15 14 14 14 12 10 9 7 7 9 11 17 23 22 22 22 26 28 27 32 33 34 36 35 34 37 37
18 22 25 21 19 19 18 17 17 15 15 13 12 11 10 11 12 13 14 15 18 21 22 25 28 30 33 35 37 39 41 40
15 18 25 25 22 21 21 20 19 19 19 18 18 16 16 17 17 16 17 19 21 24 26 27 29 30 33 36 38 41 43 44
12 17 20 21 22 22 21 21 20 19 18 19 22 22 23 23 22 20 21 22 24 25 28 30 32 34 36 39 39 40 45 50
10 16 20 23 24 25 26 26 25 26 26 24 23 26 28 30 28 27 28 29 28 30 31 32 35 37 39 40 39 41 43 40
12 16 19 22 22 19 19 23 27 30 31 30 28 28 29 29 29 32 34 33 33 33 32 31 37 38 42 42 43 43 45 39
18 17 20 22 23 22 19 21 23 26 27 29 30 28 28 32 34 32 33 35 32 33 33 32 34 41 43 43 49 53 49 40
21 21 22 24 26 24 23 21 20 17 21 23 24 26 27 29 36 36 34 35 33 37 42 41 39 39 38 36 43 46 42 44
21 24 24 27 27 25 28 26 26 24 20 20 24 25 24 24 27 31 34 36 36 38 39 40 42 40 38 39 35 39 42 43
27 28 27 26 28 33 29 30 29 28 28 26 26 24 21 21 23 25 26 30 34 37 40 40 40 39 39 39 37 39 41 43
Wind_Direction
282 289 281 285 294 308 310 295 202 210 191 212 203 207 214 207 200 224 213 192 187 189 187 193 182 192 203 189 186 193 196 201
273 283 281 275 293 316 319 218 188 208 190 187 196 205 199 201 226 201 190 185 185 186 189 181 186 186 185 183 186 191 190 197
266 278 284 267 290 325 330 165 175 182 197 187 209 200 210 217 214 189 186 186 188 179 186 195 202 212 200 183 184 194 202 208
257 270 272 257 277 316 337 188 171 183 187 199 202 205 214 216 214 205 193 196 196 191 197 210 215 217 192 180 189 198 206 225
244 250 254 244 252 258 283 162 211 217 227 211 202 202 205 215 221 216 218 207 205 208 203 205 225 197 200 198 197 209 223 236
239 239 243 240 233 227 205 168 166 196 216 227 217 205 213 214 223 224 222 225 217 215 224 217 212 208 205 201 206 212 219 244
221 232 242 245 234 224 208 187 156 159 195 218 225 222 213 208 220 226 220 228 226 217 217 216 219 210 209 208 213 219 232 239
221 228 238 239 226 221 209 202 180 168 173 184 193 217 209 216 216 216 224 221 229 231 215 218 223 218 226 216 219 224 241 252
223 229 228 223 217 210 206 203 200 193 191 186 173 165 182 199 214 225 228 226 228 212 212 210 209 221 215 220 230 240 249 253
220 221 213 215 210 205 204 202 206 202 203 208 207 195 182 185 195 209 213 212 213 210 219 214 218 216 220 225 235 243 249 249
231 232 210 206 204 201 203 205 208 210 212 215 218 218 215 208 210 214 219 220 217 219 221 219 223 226 229 233 238 243 248 253
227 215 207 205 206 202 204 212 218 221 221 221 223 226 227 226 223 222 223 224 227 231 230 230 232 237 241 245 246 248 253 256
210 213 210 211 209 207 209 215 220 226 233 232 230 228 232 232 231 232 234 239 240 241 241 242 242 241 242 247 250 251 254 264
238 214 216 220 223 227 227 228 231 236 240 240 235 229 236 236 233 229 229 234 241 244 244 248 249 248 248 250 254 258 264 268
258 237 228 230 227 226 231 236 240 241 241 243 240 236 240 238 233 233 235 237 237 245 249 254 253 252 253 254 256 263 267 261
252 246 238 235 221 219 228 233 239 240 241 241 244 238 238 234 232 236 240 242 243 241 242 249 255 253 253 258 259 260 261 250
261 243 239 233 225 231 235 229 233 236 239 237 235 236 239 242 241 242 246 244 244 244 248 252 254 257 257 262 261 271 239 243
259 244 240 238 235 238 239 235 233 236 240 236 233 235 240 243 243 241 244 243 244 243 247 251 254 257 257 260 262 245 244 252
238 245 247 247 245 239 235 235 232 236 237 233 234 231 233 241 244 246 248 248 248 249 246 248 251 253 254 255 259 257 256 258
Height
3083 3081 3080 3078 3076 3074 3070 3065 3066 3068 3072 3073 3075 3079 3081 3084 3087 3090 3094 3098 3106 3114 3122 3129 3135 3139 3144 3146 3151 3154 3155 3158
3080 3078 3077 3076 3075 3072 3067 3063 3066 3069 3070 3073 3074 3077 3080 3083 3086 3090 3094 3101 3108 3114 3122 3127 3132 3138 3142 3144 3147 3151 3153 3156
3077 3076 3075 3074 3073 3071 3068 3065 3066 3070 3072 3075 3076 3078 3081 3084 3087 3091 3095 3100 3109 3114 3120 3124 3130 3134 3139 3141 3145 3148 3151 3153
3073 3073 3073 3072 3071 3070 3069 3067 3067 3069 3070 3072 3075 3077 3079 3081 3085 3089 3095 3099 3106 3111 3116 3122 3126 3132 3135 3138 3141 3144 3146 3149
3070 3070 3070 3070 3069 3069 3069 3067 3067 3068 3069 3072 3074 3077 3078 3081 3085 3089 3093 3098 3104 3109 3113 3118 3122 3127 3131 3135 3137 3141 3143 3145
3067 3067 3068 3067 3067 3067 3067 3068 3067 3067 3069 3071 3073 3075 3077 3079 3083 3086 3091 3095 3099 3105 3108 3115 3118 3123 3128 3130 3133 3135 3138 3140
3063 3063 3064 3065 3065 3065 3066 3066 3066 3067 3068 3069 3070 3073 3076 3078 3080 3082 3087 3092 3095 3100 3104 3109 3113 3118 3122 3126 3130 3131 3133 3134
3059 3060 3060 3062 3063 3064 3064 3066 3066 3067 3068 3068 3068 3069 3073 3076 3080 3083 3086 3089 3093 3096 3101 3104 3108 3115 3119 3123 3124 3126 3127 3129
3054 3056 3057 3059 3060 3062 3063 3065 3066 3067 3067 3068 3068 3069 3070 3072 3076 3080 3082 3085 3089 3094 3097 3099 3104 3108 3114 3116 3119 3120 3122 3123
3049 3051 3053 3055 3057 3059 3062 3063 3064 3065 3066 3067 3068 3069 3070 3072 3074 3078 3080 3082 3085 3088 3092 3094 3099 3103 3107 3110 3111 3114 3115 3116
3044 3045 3048 3051 3053 3055 3057 3060 3062 3063 3064 3066 3067 3069 3070 3071 3073 3075 3078 3080 3081 3084 3087 3091 3095 3097 3100 3102 3104 3107 3108 3109
3040 3041 3044 3047 3049 3051 3053 3056 3058 3060 3061 3063 3064 3066 3068 3070 3072 3074 3075 3077 3080 3083 3084 3086 3088 3091 3094 3096 3098 3101 3102 3103
3038 3039 3041 3044 3046 3048 3050 3052 3054 3056 3058 3059 3061 3062 3063 3065 3067 3070 3072 3074 3076 3078 3080 3082 3084 3086 3088 3089 3091 3093 3093 3092
3036 3038 3039 3041 3042 3044 3046 3047 3049 3051 3051 3054 3056 3057 3058 3060 3063 3064 3065 3067 3070 3072 3073 3075 3077 3079 3081 3081 3083 3085 3086 3085
3034 3034 3036 3037 3037 3039 3040 3041 3043 3044 3045 3046 3048 3050 3052 3054 3057 3057 3059 3060 3062 3064 3066 3068 3069 3070 3071 3073 3075 3075 3076 3076
3030 3030 3030 3032 3033 3034 3035 3036 3036 3037 3037 3039 3041 3043 3045 3046 3047 3050 3052 3053 3055 3057 3058 3060 3061 3061 3062 3065 3064 3062 3063 3066
3023 3024 3024 3025 3027 3029 3029 3030 3031 3031 3032 3033 3035 3036 3038 3039 3041 3042 3043 3045 3047 3048 3049 3051 3053 3052 3055 3056 3055 3051 3052 3053
3016 3017 3018 3019 3020 3022 3023 3024 3025 3025 3027 3028 3029 3030 3031 3032 3033 3035 3036 3037 3038 3039 3041 3042 3043 3044 3046 3046 3046 3043 3042 3044
3007 3008 3009 3011 3013 3014 3016 3016 3017 3019 3020 3022 3023 3024 3025 3026 3027 3028 3029 3030 3031 3031 3032 3033 3034 3035 3035 3035 3036 3033 3034 3034